Temp
61 61 61 61 60 61 61 61 61 60 60 61 60 60 60 61 60 59 58 58 58 58 58 58 59 59 52 51 59 68 67 66 65 67 65 64 61 58 55 58 56 55 61 63 64 64 63
61 60 60 60 60 60 61 61 60 59 60 60 60 60 59 60 59 59 58 57 57 57 57 58 58 58 48 51 71 69 67 65 66 65 64 64 64 64 60 60 57 63 63 61 60 62 64
60 60 60 60 59 59 59 59 59 59 59 59 60 59 59 59 59 58 58 57 57 56 57 58 58 56 49 56 68 66 70 66 67 66 65 67 67 62 63 60 65 63 59 59 58 60 60
60 60 60 59 59 59 58 58 58 58 59 59 60 59 58 58 58 57 57 57 56 57 57 57 58 50 48 69 64 67 66 68 71 70 68 70 68 64 60 64 63 58 57 50 57 61 61
59 59 59 59 59 58 58 58 58 58 58 59 59 59 58 57 57 57 56 56 56 57 57 57 49 48 51 69 66 71 71 68 70 70 69 76 66 59 61 51 48 52 46 49 55 64 62
59 59 59 59 59 58 58 58 58 57 57 58 58 59 58 57 57 56 55 56 56 55 56 58 56 48 58 64 71 72 68 71 67 65 64 61 56 52 51 49 41 44 47 47 51 58 59
59 59 59 59 59 59 59 59 58 57 57 57 58 58 58 57 57 56 53 50 51 50 51 54 55 55 61 68 72 69 72 69 67 62 53 56 50 46 51 53 54 54 50 50 53 60 56
56 58 59 58 58 59 59 59 58 57 57 57 57 57 57 57 57 56 50 49 56 56 49 57 59 59 65 67 61 67 74 65 61 54 54 52 47 56 57 56 54 56 51 50 55 57 57
56 55 58 58 59 58 58 59 58 57 57 57 57 57 57 57 56 52 49 53 62 60 48 56 60 59 62 65 60 62 70 64 59 54 54 49 55 60 60 57 55 54 50 49 51 52 53
55 55 55 57 58 58 58 58 57 57 56 56 56 56 56 55 51 52 50 59 58 56 43 51 56 61 65 66 60 70 71 67 58 56 54 52 59 58 55 56 57 49 56 55 53 48 42
54 55 55 55 57 56 56 56 57 57 57 56 55 56 54 56 53 52 59 61 58 54 29 56 58 71 66 63 63 66 71 65 57 57 56 54 55 54 54 58 58 54 57 54 52 46 46
54 54 54 55 54 56 56 56 56 56 56 56 55 56 54 54 52 54 58 59 57 39 30 52 61 59 58 61 61 63 65 66 64 57 56 56 60 58 59 62 60 59 54 52 47 45 35
54 54 54 54 54 54 56 55 55 55 56 56 55 56 54 57 50 57 57 56 41 31 54 52 54 57 56 54 57 59 57 54 52 46 45 52 54 57 61 55 57 55 47 37 36 32 32
54 54 54 54 53 53 54 55 54 55 55 56 55 54 55 57 55 55 57 48 35 44 46 57 57 55 52 56 55 56 53 50 52 51 45 45 42 54 59 55 51 50 49 36 32 29 37
54 53 53 53 54 53 53 54 54 54 54 55 54 52 53 56 57 54 49 39 39 46 54 54 55 50 49 54 55 54 51 50 54 55 47 42 45 53 57 59 59 50 45 49 37 34 32
53 53 53 53 53 53 53 54 54 54 53 54 47 48 51 58 58 54 45 41 46 55 57 54 48 51 45 49 50 50 49 55 54 57 57 51 43 51 55 57 57 53 55 42 38 32 31
53 53 53 52 52 52 53 53 54 54 53 54 46 43 54 57 56 46 38 43 49 59 57 52 49 49 50 49 50 48 50 56 57 56 56 51 48 46 53 51 52 49 46 45 44 36 31
52 52 52 52 52 52 52 53 54 53 53 50 45 38 52 57 43 44 40 48 52 55 56 54 54 52 50 51 50 49 50 56 59 56 52 52 46 35 49 54 56 53 50 47 33 37 31
52 52 52 52 52 51 51 52 53 53 53 47 40 44 52 54 39 39 45 47 52 52 52 52 52 54 53 50 47 50 51 58 57 56 51 52 43 33 41 48 51 48 51 49 44 36 34
52 51 51 52 52 51 51 51 52 53 53 47 43 37 44 47 50 45 42 43 44 54 51 53 52 54 51 50 52 49 50 55 57 55 52 54 45 43 38 43 47 43 49 49 46 32 34
51 50 51 51 52 51 51 52 52 52 52 47 42 42 47 37 41 44 46 45 44 45 51 53 49 50 48 43 46 46 50 52 54 52 51 52 45 45 46 49 50 49 49 47 46 45 38
51 50 50 50 51 51 51 51 51 51 52 43 39 42 47 41 46 43 44 43 44 47 48 48 49 53 53 47 49 47 51 49 50 51 49 50 41 43 39 45 46 45 49 48 48 47 46
50 50 49 50 50 51 51 51 50 50 51 41 45 48 47 44 43 42 42 44 46 50 50 54 54 52 47 52 56 55 53 54 55 51 46 45 38 36 36 38 39 34 42 47 48 50 49
50 49 49 50 50 50 50 49 49 51 50 44 47 47 43 38 42 42 45 47 47 49 47 53 55 49 54 56 55 54 51 51 51 48 50 40 37 33 30 32 25 45 49 50 47 46 48
49 49 49 49 50 50 50 49 51 51 51 42 48 46 44 35 45 45 46 46 50 51 49 52 55 60 58 52 44 41 36 41 43 48 48 47 36 31 31 30 38 45 48 47 45 43 47
49 49 49 49 49 49 49 50 50 50 51 44 47 50 45 41 42 51 46 48 44 45 46 49 59 55 53 41 35 35 33 39 37 43 47 43 39 36 28 30 27 41 48 53 51 36 49
48 48 49 49 49 49 49 49 49 50 50 44 47 50 46 41 47 52 46 46 52 48 45 47 50 49 50 33 30 32 32 44 36 35 34 32 30 30 24 25 33 45 51 53 37 39 49
47 48 48 48 49 49 49 49 49 50 50 47 45 50 46 42 44 49 52 49 51 51 44 47 50 46 36 38 35 32 31 37 35 40 38 36 31 27 26 24 31 50 50 43 45 46 49
48 48 48 48 48 48 48 49 49 50 50 49 43 50 52 45 43 50 51 52 50 60 54 47 50 48 47 41 37 34 31 29 35 31 43 37 39 35 37 36 47 49 49 50 49 49 48
MSLP
1020.39 1020.45 1020.47 1020.42 1020.40 1020.35 1020.20 1019.98 1019.88 1019.68 1019.37 1019.24 1019.27 1019.25 1019.23 1019.22 1019.27 1019.29 1019.08 1018.97 1018.84 1018.63 1018.09 1017.81 1017.64 1017.30 1016.84 1016.01 1012.88 1010.77 1010.77 1011.44 1012.04 1012.20 1012.15 1011.96 1011.81 1012.00 1011.95 1011.51 1011.53 1011.43 1010.66 1010.25 1009.84 1010.20 1010.75
1020.25 1020.16 1020.05 1020.05 1019.96 1019.99 1019.84 1019.69 1019.59 1019.57 1019.37 1019.14 1018.90 1018.94 1018.91 1018.91 1018.99 1018.98 1018.87 1018.79 1018.57 1018.47 1018.06 1017.68 1017.64 1017.34 1017.18 1014.86 1010.88 1010.90 1011.11 1011.92 1011.91 1011.97 1011.92 1011.85 1011.41 1011.41 1011.53 1011.17 1011.04 1010.39 1010.24 1009.73 1009.85 1010.19 1011.02
1020.03 1020.00 1019.90 1019.72 1019.81 1019.56 1019.48 1019.53 1019.32 1019.18 1019.19 1019.06 1018.78 1018.56 1018.66 1018.66 1018.67 1018.71 1018.68 1018.63 1018.31 1018.29 1017.92 1017.65 1017.64 1017.49 1016.91 1012.91 1011.13 1011.09 1011.23 1011.61 1011.53 1011.47 1011.57 1011.21 1011.01 1011.28 1011.08 1010.74 1010.28 1010.05 1009.78 1009.98 1010.21 1010.30 1011.16
1019.36 1019.38 1019.37 1019.33 1019.35 1019.48 1019.17 1019.17 1019.19 1018.84 1018.73 1018.98 1018.60 1018.24 1018.29 1018.38 1018.40 1018.46 1018.34 1018.39 1018.19 1018.04 1017.72 1017.59 1017.56 1017.58 1015.19 1011.44 1011.25 1011.11 1011.23 1011.14 1011.06 1011.14 1011.16 1010.96 1010.80 1011.04 1011.08 1010.66 1010.15 1010.27 1010.25 1010.32 1010.41 1010.52 1011.08
1018.64 1018.61 1018.65 1018.77 1018.75 1018.74 1018.92 1018.87 1018.89 1018.93 1018.90 1018.35 1018.50 1018.23 1017.79 1018.10 1018.23 1018.20 1018.00 1017.94 1017.73 1017.75 1017.44 1017.44 1017.55 1017.09 1013.91 1011.07 1010.88 1009.86 1010.49 1010.92 1010.56 1010.61 1010.88 1010.74 1010.62 1011.20 1011.19 1011.26 1011.21 1010.95 1010.76 1010.58 1010.62 1010.39 1010.67
1017.79 1017.96 1018.01 1017.97 1018.16 1018.14 1018.32 1018.48 1018.54 1018.47 1018.77 1018.36 1018.25 1018.18 1017.70 1017.82 1017.96 1018.08 1017.77 1017.43 1017.21 1017.59 1017.21 1017.38 1017.12 1016.70 1012.94 1011.02 1009.96 1009.64 1009.94 1010.37 1010.55 1010.60 1010.87 1010.83 1011.44 1011.73 1012.00 1011.93 1011.90 1011.33 1010.89 1010.58 1010.51 1010.77 1010.75
1016.79 1017.02 1017.26 1017.40 1017.59 1017.61 1017.65 1017.98 1018.19 1018.15 1018.21 1018.42 1018.18 1018.00 1017.48 1017.61 1017.85 1017.94 1017.86 1017.51 1017.81 1017.41 1016.89 1015.37 1014.63 1013.83 1012.04 1010.92 1009.62 1009.28 1009.43 1010.24 1010.45 1010.69 1011.27 1011.28 1012.02 1012.01 1011.68 1011.48 1011.25 1010.86 1010.70 1010.69 1010.56 1010.52 1010.88
1015.98 1016.06 1016.30 1016.71 1016.85 1017.11 1017.13 1017.09 1017.68 1018.08 1017.80 1017.93 1018.04 1017.84 1017.35 1017.51 1017.87 1017.92 1018.23 1017.87 1016.87 1016.90 1015.76 1013.62 1012.97 1012.61 1011.51 1011.38 1010.81 1009.18 1009.03 1010.00 1010.39 1010.81 1011.43 1011.75 1011.63 1011.00 1010.88 1010.82 1011.04 1010.74 1010.59 1010.66 1010.34 1010.32 1010.59
1014.93 1014.95 1015.24 1015.67 1016.12 1016.40 1016.50 1016.66 1016.98 1017.40 1017.51 1017.52 1018.03 1017.37 1017.40 1017.53 1018.02 1018.12 1017.99 1017.13 1016.09 1016.11 1015.79 1012.48 1011.38 1010.98 1010.44 1010.83 1010.15 1009.03 1008.94 1009.40 1010.01 1010.83 1011.34 1011.31 1010.47 1010.29 1010.23 1010.37 1010.45 1010.53 1010.76 1010.92 1011.02 1011.03 1011.29
1013.69 1014.10 1014.34 1014.16 1015.04 1015.69 1015.99 1016.11 1016.47 1016.86 1016.96 1017.01 1017.40 1017.34 1017.25 1017.91 1018.57 1017.73 1017.25 1016.20 1015.70 1015.83 1015.30 1011.88 1010.36 1008.88 1009.17 1009.39 1009.20 1008.29 1008.42 1009.02 1009.92 1010.24 1011.05 1010.97 1010.00 1009.90 1009.95 1009.87 1010.11 1010.63 1010.47 1010.80 1011.12 1011.61 1012.05
1012.44 1012.69 1013.40 1013.09 1013.68 1014.37 1015.13 1015.67 1015.87 1016.07 1016.52 1016.57 1016.93 1017.09 1017.20 1017.45 1017.30 1017.31 1016.10 1015.73 1015.72 1015.83 1014.58 1010.29 1008.88 1007.33 1007.81 1008.56 1008.10 1007.79 1007.91 1008.56 1009.38 1010.00 1010.77 1010.37 1009.82 1009.83 1009.69 1009.33 1010.00 1010.43 1010.39 1010.82 1011.20 1012.31 1012.59
1010.73 1011.38 1012.02 1012.14 1012.38 1013.05 1013.82 1014.92 1015.23 1015.69 1015.96 1016.27 1016.44 1016.95 1017.04 1017.52 1017.24 1016.49 1015.84 1015.51 1015.43 1015.49 1013.07 1009.50 1007.90 1007.53 1008.14 1008.13 1007.98 1007.72 1008.01 1008.27 1008.81 1009.71 1010.01 1010.02 1009.36 1009.40 1009.13 1009.05 1009.63 1010.21 1010.83 1011.77 1012.57 1013.25 1013.86
1009.04 1009.64 1010.50 1011.03 1011.18 1011.83 1012.66 1013.68 1014.54 1015.11 1015.48 1015.88 1016.27 1016.54 1016.74 1016.54 1016.49 1015.98 1015.82 1015.72 1015.62 1014.15 1011.24 1009.09 1007.91 1007.62 1007.83 1008.06 1008.23 1008.14 1008.32 1008.88 1009.29 1009.98 1010.32 1010.13 1009.60 1009.33 1009.09 1009.61 1009.84 1010.47 1011.67 1013.08 1014.10 1014.57 1014.61
1007.12 1008.03 1008.84 1009.55 1010.18 1010.90 1011.61 1012.43 1013.47 1014.40 1014.91 1015.52 1015.97 1016.22 1016.09 1015.91 1015.97 1015.84 1015.91 1015.76 1014.24 1011.94 1010.69 1008.64 1007.66 1007.86 1008.03 1007.98 1008.32 1008.55 1008.90 1009.38 1009.54 1009.90 1010.64 1010.67 1010.41 1009.66 1009.62 1009.77 1010.03 1010.79 1011.87 1013.39 1014.80 1015.70 1015.20
1005.13 1006.27 1007.03 1008.06 1008.71 1009.73 1010.66 1011.39 1012.30 1013.61 1014.28 1015.01 1015.60 1016.09 1015.46 1015.36 1015.86 1015.79 1016.22 1014.49 1012.11 1010.59 1009.72 1008.72 1007.80 1008.08 1008.20 1007.98 1008.12 1008.75 1009.14 1009.42 1009.44 1009.64 1010.39 1010.89 1010.54 1009.97 1009.73 1009.72 1009.77 1010.87 1011.91 1013.05 1014.81 1016.40 1015.99
1002.99 1004.16 1005.48 1006.26 1007.31 1008.25 1009.35 1010.42 1011.39 1012.63 1013.72 1014.43 1015.26 1015.56 1014.43 1014.66 1015.53 1015.88 1015.52 1012.76 1011.36 1009.96 1009.26 1008.50 1008.02 1007.61 1007.90 1008.10 1008.49 1008.64 1008.93 1008.69 1008.95 1009.12 1009.10 1010.40 1010.80 1010.35 1010.19 1009.92 1010.01 1010.42 1011.71 1013.17 1014.69 1016.24 1016.54
1000.79 1002.08 1003.53 1004.77 1005.83 1006.60 1007.85 1009.05 1010.44 1011.66 1013.05 1013.92 1015.02 1014.64 1012.95 1014.11 1015.25 1015.45 1013.15 1011.90 1011.36 1009.64 1009.41 1008.95 1008.26 1007.71 1007.60 1007.78 1008.12 1008.46 1008.68 1008.45 1008.32 1008.90 1009.37 1010.21 1010.77 1011.16 1010.64 1010.38 1010.14 1010.96 1011.57 1012.89 1014.24 1015.65 1016.47
998.55 1000.01 1001.59 1003.32 1004.37 1005.35 1006.57 1007.92 1009.49 1010.70 1012.04 1013.41 1013.65 1013.25 1012.73 1013.18 1014.03 1012.99 1011.94 1011.44 1010.86 1009.95 1009.71 1009.16 1008.48 1008.10 1007.58 1007.45 1007.85 1008.05 1008.20 1007.84 1007.51 1008.28 1009.67 1009.88 1010.67 1011.44 1010.71 1010.04 1010.06 1010.40 1011.19 1012.44 1014.42 1015.77 1016.11
996.47 998.04 999.81 1001.67 1003.09 1004.59 1005.62 1006.90 1008.38 1009.73 1010.68 1012.10 1012.15 1012.06 1012.39 1011.95 1011.84 1010.49 1011.24 1011.11 1010.69 1009.80 1009.43 1009.31 1008.59 1007.90 1007.28 1007.16 1007.64 1007.53 1007.42 1007.06 1007.37 1008.10 1008.55 1009.57 1010.69 1011.36 1011.16 1010.68 1010.24 1010.37 1010.78 1011.73 1013.43 1014.51 1015.02
994.23 995.96 998.02 999.97 1001.83 1003.17 1004.89 1006.50 1007.43 1009.05 1010.08 1011.35 1011.10 1011.05 1011.38 1011.12 1009.53 1009.84 1010.52 1010.29 1010.25 1009.36 1009.38 1009.26 1008.69 1007.98 1007.60 1006.98 1006.71 1007.14 1007.35 1007.22 1007.41 1007.95 1007.83 1008.41 1010.15 1010.86 1011.00 1010.69 1010.53 1010.72 1010.76 1011.49 1012.64 1013.95 1014.00
992.43 994.16 996.24 998.37 1000.30 1002.01 1003.67 1005.29 1006.59 1007.92 1009.56 1010.65 1009.83 1008.43 1007.41 1008.05 1008.21 1008.92 1009.52 1009.41 1009.52 1008.97 1008.93 1008.87 1008.74 1008.07 1007.85 1007.64 1007.08 1007.14 1007.22 1007.60 1007.74 1008.14 1008.78 1008.62 1010.10 1010.95 1010.95 1010.57 1010.57 1010.61 1010.80 1011.31 1012.06 1012.08 1012.74
990.81 992.50 994.79 997.05 999.10 1000.88 1002.57 1004.16 1005.68 1007.11 1008.92 1009.74 1008.35 1007.01 1006.78 1006.56 1007.96 1008.72 1008.65 1008.30 1008.22 1008.36 1008.07 1007.92 1008.14 1007.40 1007.53 1008.00 1007.41 1007.18 1007.03 1007.24 1007.73 1008.43 1009.05 1009.36 1010.79 1011.51 1012.20 1011.69 1011.30 1011.07 1010.82 1011.03 1011.30 1011.32 1011.33
989.60 991.27 993.71 995.92 998.19 999.94 1001.50 1003.34 1004.79 1006.63 1007.83 1007.86 1007.67 1006.73 1006.07 1006.21 1006.92 1007.59 1005.78 1006.99 1007.28 1008.28 1007.93 1007.27 1007.16 1007.38 1007.15 1006.82 1006.61 1006.68 1006.48 1006.34 1006.84 1008.01 1009.49 1010.25 1011.42 1012.84 1013.55 1013.05 1012.51 1011.99 1010.80 1010.44 1010.45 1010.28 1010.42
988.56 990.61 992.93 995.37 997.48 999.29 1001.01 1002.73 1004.42 1005.71 1006.16 1007.37 1006.79 1006.70 1005.93 1005.38 1005.67 1004.69 1005.89 1007.01 1007.06 1006.78 1007.25 1006.85 1006.87 1007.32 1006.72 1006.45 1006.95 1007.21 1007.44 1007.65 1008.15 1008.61 1009.15 1010.77 1012.35 1013.60 1014.87 1014.50 1013.20 1010.78 1009.90 1009.83 1010.07 1010.12 1010.01
987.68 990.32 992.70 995.03 997.07 998.81 1000.59 1002.22 1003.44 1004.48 1005.75 1007.51 1006.53 1006.54 1005.67 1005.21 1004.83 1005.10 1005.64 1006.34 1007.07 1007.08 1006.98 1006.95 1006.20 1005.87 1006.56 1007.33 1008.41 1008.86 1009.58 1009.52 1009.74 1009.87 1010.11 1010.62 1012.55 1014.84 1015.55 1015.04 1013.12 1010.88 1010.09 1009.87 1009.99 1010.40 1010.31
988.09 990.58 992.89 994.98 996.83 998.49 999.94 1001.38 1002.63 1003.89 1005.10 1006.74 1007.19 1006.16 1005.99 1005.10 1003.59 1004.25 1005.09 1005.42 1005.44 1005.87 1007.00 1006.17 1006.24 1006.11 1007.04 1008.42 1009.65 1010.20 1010.53 1010.42 1010.89 1010.90 1011.23 1011.73 1012.68 1014.11 1015.98 1015.30 1013.15 1010.62 1009.36 1009.13 1009.57 1010.68 1010.65
989.29 991.32 993.34 995.08 996.69 998.18 999.59 1000.97 1002.19 1003.41 1004.70 1006.15 1006.09 1005.82 1006.32 1005.67 1003.85 1003.37 1003.51 1004.17 1005.23 1005.36 1005.38 1005.84 1005.88 1006.51 1006.99 1008.90 1010.31 1010.72 1010.72 1010.28 1011.22 1011.69 1012.38 1013.31 1014.33 1014.88 1015.28 1014.48 1012.32 1009.96 1009.25 1009.38 1010.01 1010.60 1010.42
990.79 992.36 993.93 995.53 997.00 998.32 999.56 1000.84 1001.94 1003.01 1004.13 1005.85 1006.24 1005.64 1005.87 1005.73 1004.84 1004.06 1003.48 1003.66 1004.20 1004.08 1003.94 1004.82 1006.00 1006.42 1007.97 1008.93 1010.16 1010.39 1010.52 1010.60 1010.77 1010.99 1011.30 1012.22 1013.70 1014.68 1014.51 1013.64 1011.47 1009.07 1009.36 1009.47 1009.34 1009.72 1010.26
992.01 993.32 994.67 996.01 997.31 998.47 999.68 1000.78 1001.86 1002.98 1004.08 1005.39 1005.92 1005.68 1006.27 1006.34 1005.41 1004.58 1003.80 1003.23 1003.60 1002.11 1002.88 1003.86 1003.72 1004.54 1005.60 1007.30 1009.17 1009.83 1010.61 1010.99 1010.68 1011.32 1010.78 1011.17 1011.00 1011.75 1012.03 1010.90 1009.61 1008.92 1008.72 1008.59 1008.98 1009.72 1010.79
Wind_Speed
15 14 13 11 10 10 12 10 9 10 11 10 9 9 8 8 8 9 9 10 10 12 12 13 14 15 7 3 9 1 8 10 6 6 5 4 4 3 3 3 1 3 6 4 8 7 5
17 15 14 13 12 12 13 11 9 11 10 11 10 9 8 8 8 9 9 10 9 10 10 10 11 12 2 5 1 5 9 7 6 5 5 4 4 5 4 5 3 5 4 4 3 7 6
20 18 16 15 15 13 12 11 11 10 11 12 11 9 9 9 8 9 10 11 9 10 9 8 8 3 2 14 3 2 7 5 5 5 4 5 3 1 3 7 3 4 2 4 2 5 4
20 19 18 17 15 14 12 11 11 10 11 12 12 10 9 8 8 9 9 12 10 11 8 5 4 1 9 4 2 2 3 7 5 6 3 2 3 4 2 5 8 3 5 4 0 5 1
23 20 20 18 16 15 14 12 12 11 13 11 12 11 8 7 8 9 10 13 11 12 6 3 2 3 11 7 5 5 9 7 3 2 4 4 0 0 5 2 5 6 3 3 1 4 6
24 23 22 20 18 16 15 14 13 11 13 12 13 12 8 7 7 8 11 14 7 4 1 3 2 2 6 2 3 2 5 7 2 2 3 1 5 3 3 4 1 3 3 2 5 4 5
28 26 24 22 20 19 18 16 14 12 11 12 13 13 8 6 5 4 6 4 3 1 2 8 5 4 4 8 5 3 5 7 4 3 2 2 4 4 6 6 3 5 1 3 4 6 4
28 27 26 24 22 21 20 17 16 13 10 10 11 12 8 6 4 1 2 1 4 1 9 11 13 9 8 3 5 5 9 6 5 4 2 4 3 8 5 1 3 1 4 5 5 3 6
27 27 29 26 25 23 20 19 15 14 11 11 13 10 8 5 3 1 3 5 5 4 5 8 6 6 6 9 8 7 8 4 4 5 6 5 5 3 2 3 4 4 1 3 4 3 6
29 27 27 29 26 24 23 21 19 16 12 11 11 10 7 8 1 3 4 3 5 5 3 8 5 8 7 7 5 8 7 7 1 10 5 6 5 3 1 1 4 5 2 4 3 2 4
32 29 28 26 29 26 22 20 19 17 16 12 11 10 11 12 0 3 2 5 4 0 4 4 5 2 8 10 3 6 6 4 6 5 6 10 3 4 3 7 5 9 5 4 1 3 5
32 32 29 27 29 28 24 21 19 15 15 13 11 10 13 4 0 6 5 5 1 7 9 5 7 7 6 5 3 1 5 2 4 5 3 6 3 6 8 3 5 2 2 7 5 3 3
35 33 31 29 26 29 27 24 19 17 16 14 12 11 11 6 4 3 3 0 2 5 4 5 6 7 6 6 4 4 4 5 6 3 2 2 2 3 4 1 1 4 5 3 3 4 5
36 35 33 31 28 26 29 26 21 19 19 16 12 9 11 4 1 3 1 3 10 7 8 6 2 5 9 7 6 6 5 4 2 3 3 5 5 3 2 4 6 3 6 6 4 3 4
38 36 35 32 30 28 30 28 24 17 16 16 11 4 5 6 3 3 2 12 7 6 5 5 3 5 4 4 6 6 8 8 9 9 8 5 5 0 2 4 5 1 2 3 7 3 3
40 37 36 33 31 31 33 31 26 21 15 15 4 4 6 9 8 2 7 17 7 6 3 5 8 6 9 7 7 7 8 6 6 10 6 8 1 1 4 2 2 4 5 2 3 3 3
40 39 36 33 32 29 36 31 28 26 22 16 5 5 8 11 7 4 15 12 15 16 3 3 4 3 7 8 9 6 8 6 6 5 5 6 5 4 2 5 9 0 2 4 5 5 6
41 40 37 34 31 29 31 33 30 28 26 17 6 8 10 14 8 7 16 9 6 17 4 4 3 6 5 8 8 9 11 10 9 11 10 8 7 5 9 3 2 4 5 6 6 4 2
41 40 39 35 32 29 27 32 31 29 29 11 8 5 9 13 14 16 8 19 13 9 8 6 5 4 1 7 6 7 8 6 8 9 10 9 1 3 8 5 2 2 4 5 4 4 7
40 42 40 38 36 33 32 32 32 28 27 9 6 9 8 11 14 17 20 12 23 11 14 3 4 3 2 3 2 7 5 2 5 2 7 11 4 9 10 9 4 3 5 5 5 4 4
38 42 41 39 38 36 34 36 34 33 30 11 5 9 8 17 24 20 19 15 19 16 13 11 6 8 2 4 1 4 3 4 3 5 1 5 7 5 3 4 4 4 5 6 7 6 7
39 43 42 40 38 37 37 36 35 31 32 13 7 5 8 4 18 26 17 24 25 23 7 10 16 7 13 10 9 9 6 4 6 2 3 2 3 5 3 2 3 4 7 7 5 3 7
37 42 41 39 37 37 38 37 36 35 27 6 9 4 5 10 19 20 29 22 26 18 17 14 17 11 5 12 11 7 2 5 10 12 6 5 8 5 5 2 3 6 8 8 6 6 6
39 41 41 39 37 37 37 36 35 35 31 5 7 2 4 10 13 21 21 21 24 25 20 15 22 4 5 5 4 6 10 12 10 8 4 7 6 3 4 3 2 9 2 4 5 3 4
43 40 40 38 37 37 37 36 36 33 32 14 4 6 3 4 16 12 22 25 16 18 17 19 8 15 10 4 4 5 6 6 4 7 6 3 7 4 6 5 5 5 5 8 7 4 2
40 39 38 37 37 37 36 35 31 29 32 15 12 7 4 2 11 10 20 21 18 16 12 10 14 3 7 4 3 6 6 6 2 4 6 7 7 6 4 5 9 9 4 3 6 2 4
36 36 36 36 35 34 33 31 28 29 31 18 4 4 1 2 5 14 14 16 13 11 7 5 7 4 4 3 4 4 3 6 8 11 6 3 4 6 3 3 8 8 4 5 6 10 8
32 32 31 31 31 31 30 28 27 28 27 18 5 5 1 1 6 5 3 8 11 14 12 5 4 1 3 5 5 5 5 6 5 6 8 9 8 4 4 3 7 7 5 9 9 3 7
28 27 28 28 28 27 27 27 27 28 23 21 4 5 1 2 4 6 12 17 13 19 12 5 5 7 7 5 2 3 3 2 5 4 2 2 8 8 10 9 4 4 3 3 6 9 6
Wind_Direction
264 265 267 269 271 273 276 279 282 281 258 247 254 263 268 275 287 293 297 303 311 316 324 326 332 335 357 303 253 347 85 133 126 146 170 167 128 187 254 226 224 211 272 259 202 168 97
274 268 261 259 258 265 269 271 274 280 278 255 246 256 263 268 278 289 294 299 309 308 319 329 336 341 9 274 314 124 121 142 149 152 191 207 195 196 266 260 161 239 279 247 176 148 146
269 274 272 261 258 252 256 262 268 273 281 265 249 253 261 268 275 290 297 297 304 299 310 327 338 355 307 240 61 90 154 202 193 177 180 220 195 80 286 302 234 278 40 50 15 154 123
262 261 265 266 261 256 245 254 267 268 270 275 254 243 254 264 277 289 295 294 297 288 298 312 351 59 252 248 237 227 172 294 212 211 290 292 236 224 215 299 346 48 38 50 131 156 94
262 261 257 259 261 253 254 250 259 269 274 271 265 250 240 256 269 289 297 293 284 279 280 250 92 95 268 316 259 217 165 223 205 175 229 269 274 46 6 28 8 358 162 158 158 220 135
258 260 260 253 253 256 249 246 249 257 272 273 270 253 242 244 267 297 306 297 286 296 136 182 243 344 271 279 291 207 192 177 200 49 334 87 49 45 22 65 204 287 350 71 153 183 167
250 251 251 256 252 248 251 249 248 247 250 273 270 261 240 237 256 308 347 3 325 264 234 211 182 256 265 310 293 250 165 136 180 104 161 350 76 226 224 203 177 263 101 156 191 194 112
268 245 246 245 250 249 246 246 243 243 245 261 277 275 253 221 229 158 71 239 258 184 302 229 239 249 263 77 291 290 128 145 153 196 188 14 228 226 249 178 199 14 344 350 307 224 144
257 261 243 239 243 243 242 244 248 235 238 249 266 268 262 190 193 140 192 238 289 29 265 280 194 205 199 155 212 256 151 140 154 161 209 175 229 164 227 155 68 336 271 270 251 357 46
253 252 254 238 232 241 243 241 243 249 233 239 256 268 216 152 193 168 234 233 332 166 328 272 222 251 164 169 243 208 192 149 178 205 176 238 273 257 68 152 90 332 98 247 256 106 156
247 247 247 243 233 224 234 236 235 234 227 226 242 251 176 169 200 215 144 306 161 178 359 245 192 170 153 163 160 232 172 87 192 193 116 240 205 192 214 213 124 240 340 280 67 108 101
237 241 242 241 236 224 215 228 225 229 233 222 227 241 172 231 339 256 307 308 112 52 248 291 165 156 141 181 206 118 150 104 175 174 194 225 197 161 201 250 173 262 74 23 37 60 46
233 234 238 238 234 225 213 207 216 224 232 223 218 233 175 158 213 296 304 254 117 181 313 233 188 156 169 163 211 150 141 153 172 122 174 330 285 12 57 343 330 94 76 330 358 13 214
227 228 230 232 229 229 218 203 202 216 221 221 213 215 215 197 186 355 206 218 214 199 248 300 199 114 179 148 216 185 147 208 242 115 130 156 309 151 174 176 170 191 158 157 214 188 256
223 224 223 227 224 224 221 204 187 198 214 210 195 217 219 200 178 77 187 212 208 200 217 242 85 139 225 200 157 147 186 193 202 172 159 137 257 21 217 206 137 148 154 176 106 356 49
220 217 220 219 223 222 216 202 189 185 194 194 172 213 214 156 152 102 227 227 221 232 349 343 197 176 182 197 161 154 175 208 214 188 150 201 121 144 314 358 358 142 163 78 15 149 244
218 212 212 216 218 216 207 193 185 181 186 188 167 209 167 141 145 166 215 211 224 252 352 303 323 229 210 172 177 176 191 246 215 179 129 144 126 267 134 196 187 106 206 56 117 132 173
216 208 205 209 211 209 200 184 179 179 178 179 169 206 162 146 187 195 220 195 208 237 215 293 316 240 230 184 190 193 202 207 174 152 165 197 142 187 215 253 218 174 190 138 125 214 171
213 203 199 200 198 187 183 178 177 180 178 165 182 182 182 164 201 210 197 212 228 215 208 208 250 241 251 204 183 195 198 221 157 150 163 180 188 66 337 348 0 220 203 106 116 76 190
208 197 193 193 192 183 182 187 173 179 180 184 174 176 176 191 220 205 198 200 216 214 250 295 287 282 260 258 209 182 160 170 144 272 155 108 127 168 204 203 161 198 245 168 147 122 190
207 192 187 189 189 186 182 184 177 178 196 182 210 205 184 187 208 207 198 194 203 212 207 188 268 219 226 317 128 184 142 137 52 137 94 129 157 149 246 172 180 202 228 176 201 208 160
204 184 182 183 186 188 183 180 174 182 190 203 196 205 163 188 199 197 202 209 205 201 190 200 223 185 218 215 206 200 151 161 181 152 156 321 160 129 149 38 7 225 223 215 229 229 268
199 177 175 176 180 183 181 181 175 193 179 190 211 289 201 202 186 187 211 206 211 196 224 237 211 220 204 222 226 258 225 146 169 149 161 120 131 113 226 57 14 325 221 224 222 212 188
184 169 168 173 175 174 172 171 179 192 185 207 200 280 233 191 190 205 192 202 207 210 214 195 234 218 243 97 107 52 39 64 52 52 99 127 99 82 186 60 326 242 272 222 190 290 225
163 163 165 170 175 174 172 175 191 189 180 192 258 209 239 190 204 199 198 202 212 217 229 226 234 225 156 66 60 62 351 33 12 37 34 97 120 104 139 187 287 297 180 159 168 239 318
154 157 162 167 169 171 174 184 188 187 182 176 240 203 280 288 213 174 187 197 203 208 224 240 234 99 84 102 110 156 175 162 191 38 37 56 57 115 141 168 208 226 228 155 115 305 206
144 151 160 164 168 171 176 183 184 183 186 171 257 141 215 296 277 178 185 196 196 194 210 189 168 143 94 139 120 165 206 167 158 160 178 72 23 152 127 204 287 245 202 130 128 229 163
147 155 161 165 168 174 178 183 181 181 178 184 219 167 148 22 289 314 251 168 189 208 198 177 121 295 54 163 151 207 124 210 101 163 176 160 142 181 88 81 272 187 122 162 209 76 137
149 153 159 164 170 175 179 180 180 175 174 178 233 157 163 280 286 331 272 272 251 210 178 204 193 156 177 125 185 118 99 78 136 205 152 196 177 177 173 208 237 230 213 183 160 146 173